Greenville, TX

2:33 AM CST on November 21, 2017 (GMT -0600)
Majors

Weather History for KGVT - October, 2012

Change the Weather History Date:

Thursday, October 25, 2012

  Actual Average Record
Temperature  
Mean Temperature 64 °F -  
Max Temperature 78 °F 73 °F 87 °F (2014)
Min Temperature 50 °F 55 °F 32 °F (2005)
Degree Days  
Heating Degree Days 1    
Growing Degree Days 14 (Base 50)    
Moisture  
Dew Point 60 °F    
Average Humidity 77    
Maximum Humidity 94    
Minimum Humidity 57    
Precipitation  
Precipitation 0.00 in - - ()
Sea Level Pressure  
Sea Level Pressure 29.92 in    
Wind  
Wind Speed 12 mph (SSW)    
Max Wind Speed 18 mph    
Max Gust Speed 26 mph    
Visibility 10 miles    
Events Rain    
Averages and records for this station are not official NWS values.
T = Trace of Precipitation, MM = Missing Value Source: NWS Daily Summary

Daily Weather History Graph

Daily Weather History Graph

Search for Another Location

Airport or City:

Trip Planner

Search our weather history database for the weather conditions in past years. The results will help you decide how hot, cold, wet, or windy it might be!

Date:

Astronomy

Oct. 25, 2012 Rise Set
Actual Time 7:36 AM CDT 6:39 PM CDT
Civil Twilight 7:11 AM CDT 7:04 PM CDT
Nautical Twilight 6:42 AM CDT 7:33 PM CDT
Astronomical Twilight 6:13 AM CDT 8:02 PM CDT
Moon 4:16 PM CDT (10/25) 3:45 AM CDT (10/25)
Length of Visible Light 11h 52m
Length of Day
11h 02m
Waxing Gibbous, 84% of the Moon is Illuminated
Oct 25
Waxing Gibbous
Oct 29
Full
Nov 6
Last Quarter
Nov 13
New
Nov 20
First Quarter

Hourly Weather History & Observations

Time (CDT) Temp. Dew Point Humidity Pressure Visibility Wind Dir Wind Speed Gust Speed Precip Events Conditions
12:15 AM 71.6 °F 64.4 °F 78% 29.85 in 10.0 mi SSE 13.8 mph 19.6 mph N/A   Clear
12:35 AM 71.6 °F 64.4 °F 78% 29.85 in 10.0 mi SSE 15.0 mph - N/A   Clear
12:55 AM 71.6 °F 64.4 °F 78% 29.85 in 10.0 mi SSE 15.0 mph 18.4 mph N/A   Clear
1:15 AM 71.6 °F 64.4 °F 78% 29.85 in 10.0 mi SSE 16.1 mph 19.6 mph N/A   Clear
1:35 AM 71.6 °F 64.4 °F 78% 29.84 in 10.0 mi SSE 12.7 mph - N/A   Clear
1:55 AM 71.6 °F 64.4 °F 78% 29.84 in 10.0 mi SSE 12.7 mph - N/A   Clear
2:35 AM 69.8 °F 64.4 °F 83% 29.84 in 10.0 mi South 12.7 mph - N/A   Clear
2:55 AM 69.8 °F 64.4 °F 83% 29.84 in 10.0 mi South 12.7 mph - N/A   Clear
3:15 AM 69.8 °F 64.4 °F 83% 29.84 in 10.0 mi South 10.4 mph - N/A   Clear
3:35 AM 69.8 °F 64.4 °F 83% 29.84 in 10.0 mi South 16.1 mph 19.6 mph N/A   Scattered Clouds
3:55 AM 71.6 °F 64.4 °F 78% 29.84 in 10.0 mi South 13.8 mph 19.6 mph N/A   Overcast
4:15 AM 71.6 °F 64.4 °F 78% 29.84 in 10.0 mi South 13.8 mph 18.4 mph N/A   Overcast
4:35 AM 71.6 °F 64.4 °F 78% 29.85 in 10.0 mi South 12.7 mph - N/A   Overcast
4:55 AM 71.6 °F 64.4 °F 78% 29.85 in 10.0 mi South 11.5 mph - N/A   Overcast
5:35 AM 71.6 °F 64.4 °F 78% 29.85 in 10.0 mi South 11.5 mph - N/A   Scattered Clouds
5:55 AM 71.6 °F 66.2 °F 83% 29.86 in 10.0 mi South 9.2 mph - N/A   Mostly Cloudy
6:15 AM 71.6 °F 64.4 °F 78% 29.86 in 10.0 mi South 10.4 mph - N/A   Mostly Cloudy
6:35 AM 71.6 °F 64.4 °F 78% 29.86 in 10.0 mi South 8.1 mph - N/A   Mostly Cloudy
6:55 AM 71.6 °F 66.2 °F 83% 29.87 in 10.0 mi South 6.9 mph - N/A   Overcast
7:55 AM 69.8 °F 66.2 °F 88% 29.88 in 10.0 mi South 6.9 mph - N/A   Scattered Clouds
8:15 AM 69.8 °F 66.2 °F 88% 29.89 in 10.0 mi South 9.2 mph - N/A   Scattered Clouds
8:35 AM 69.8 °F 68.0 °F 94% 29.90 in 10.0 mi South 9.2 mph - N/A   Mostly Cloudy
8:55 AM 71.6 °F 68.0 °F 88% 29.90 in 10.0 mi South 9.2 mph - N/A   Scattered Clouds
9:15 AM 73.4 °F 68.0 °F 83% 29.90 in 10.0 mi SSW 10.4 mph - N/A   Mostly Cloudy
9:35 AM 73.4 °F 68.0 °F 83% 29.90 in 10.0 mi South 13.8 mph 17.3 mph N/A   Mostly Cloudy
9:55 AM 73.4 °F 64.4 °F 73% 29.91 in 10.0 mi SSW 15.0 mph - N/A   Mostly Cloudy
10:15 AM 75.2 °F 66.2 °F 73% 29.91 in 10.0 mi SSW 17.3 mph 23.0 mph N/A   Mostly Cloudy
10:35 AM 75.2 °F 64.4 °F 69% 29.92 in 10.0 mi SSW 16.1 mph 23.0 mph N/A   Mostly Cloudy
10:55 AM 77.0 °F 64.4 °F 65% 29.92 in 10.0 mi South 16.1 mph 24.2 mph N/A   Scattered Clouds
11:15 AM 77.0 °F 64.4 °F 65% 29.92 in 10.0 mi SSW 12.7 mph 20.7 mph N/A   Mostly Cloudy
11:35 AM 77.0 °F 64.4 °F 65% 29.93 in 10.0 mi SSW 15.0 mph 20.7 mph N/A   Mostly Cloudy
12:15 PM 77.0 °F 64.4 °F 65% 29.92 in 10.0 mi SSW 8.1 mph - N/A   Overcast
12:35 PM 78.8 °F 62.6 °F 57% 29.91 in 10.0 mi SSW 12.7 mph 18.4 mph N/A   Overcast
12:55 PM 78.8 °F 62.6 °F 57% 29.91 in 10.0 mi SSW 13.8 mph - N/A   Overcast
1:35 PM 78.8 °F 62.6 °F 57% 29.89 in 10.0 mi SSW 11.5 mph 17.3 mph N/A   Overcast
1:55 PM 78.8 °F 62.6 °F 57% 29.89 in 10.0 mi SSW 10.4 mph - N/A   Overcast
2:15 PM 78.8 °F 62.6 °F 57% 29.88 in 10.0 mi SSW 8.1 mph - N/A   Overcast
2:35 PM 78.8 °F 62.6 °F 57% 29.88 in 10.0 mi SSW 8.1 mph - N/A   Overcast
2:55 PM 77.0 °F 64.4 °F 65% 29.88 in 10.0 mi SSW 4.6 mph - N/A   Overcast
3:15 PM 73.4 °F 66.2 °F 78% 29.89 in 4.0 mi SSW 6.9 mph - N/A Rain Heavy Rain
3:35 PM 73.4 °F 68.0 °F 83% 29.89 in 10.0 mi SSE 3.5 mph - N/A   Overcast
3:55 PM 64.4 °F 59.0 °F 83% 29.92 in 7.0 mi North 13.8 mph 26.5 mph N/A Rain Rain
4:15 PM 60.8 °F 55.4 °F 82% 29.93 in 5.0 mi North 18.4 mph 26.5 mph N/A Rain Rain
4:35 PM 59.0 °F 55.4 °F 88% 29.94 in 7.0 mi NNW 15.0 mph - N/A   Light Drizzle
4:55 PM 59.0 °F 53.6 °F 82% 29.95 in 10.0 mi North 9.2 mph - N/A Rain Light Rain
5:15 PM 55.4 °F 53.6 °F 94% 29.97 in 10.0 mi North 13.8 mph - N/A Rain Light Rain
5:35 PM 55.4 °F 53.6 °F 94% 29.97 in 10.0 mi North 16.1 mph 20.7 mph N/A   Overcast
5:55 PM 55.4 °F 51.8 °F 88% 29.98 in 10.0 mi North 13.8 mph 21.9 mph N/A   Overcast
6:15 PM 53.6 °F 50.0 °F 88% 29.98 in 10.0 mi North 15.0 mph 19.6 mph N/A   Overcast
6:35 PM 53.6 °F 50.0 °F 88% 29.99 in 10.0 mi North 11.5 mph - N/A   Light Drizzle
6:55 PM 53.6 °F 50.0 °F 88% 30.00 in 10.0 mi North 12.7 mph 16.1 mph N/A   Drizzle
7:55 PM 55.4 °F 48.2 °F 77% 30.02 in 10.0 mi North 11.5 mph 19.6 mph N/A   Overcast
8:35 PM 53.6 °F 48.2 °F 82% 30.03 in 10.0 mi North 11.5 mph 19.6 mph N/A Rain Rain
8:55 PM 53.6 °F 48.2 °F 82% 30.04 in 10.0 mi North 12.7 mph 19.6 mph N/A   Overcast
9:35 PM 55.4 °F 44.6 °F 67% 30.05 in 10.0 mi North 15.0 mph 20.7 mph N/A   Overcast
9:55 PM 55.4 °F 44.6 °F 67% 30.06 in 10.0 mi NNW 9.2 mph 19.6 mph N/A Rain Rain
10:15 PM 53.6 °F 44.6 °F 72% 30.07 in 10.0 mi North 10.4 mph 23.0 mph N/A   Drizzle
10:55 PM 50.0 °F 44.6 °F 82% 30.07 in 10.0 mi North 12.7 mph 21.9 mph N/A Rain Light Rain
11:15 PM 51.8 °F 44.6 °F 76% 30.07 in 10.0 mi North 10.4 mph 16.1 mph N/A   Overcast
11:35 PM 51.8 °F 42.8 °F 71% 30.07 in 10.0 mi North 10.4 mph 18.4 mph N/A   Overcast
11:55 PM 51.8 °F 42.8 °F 71% 30.07 in 10.0 mi North 6.9 mph 16.1 mph N/A   Overcast